Terminal Aerodrome Forecast
Issued by NWS Twin Cities, MN

Home | Current Version | Previous Version | Text Only | Print | Product List | Glossary On
Versions: 1 2 3 4 5 6 7 8 9 10 11 12 13 14 15 16 17 18 19 20 21 22 23 24
000
FTUS43 KMPX 242343
TAFMSP
TAF
KMSP 242343Z 2500/2606 11013G18KT 3SM -RA SCT016 OVC025
     FM250200 10015G20KT 5SM BR VCSH BKN016 OVC025
     FM250600 09014G20KT 6SM BR OVC014
     FM251500 08014G20KT P6SM OVC019
     FM251800 07016G22KT P6SM BKN020 OVC030
     FM252000 06014KT P6SM BKN035=

USA.gov is the U.S. government's official web portal to all federal, state and local government web resources and services.